Location: Kergrach
(48.3833°N, 4.5167°W)
Time: 15:15:06
(UTC+00:00)

CZ-4B R/B - Pass Details

Date: 18 February 2020
Orbit: 809 x 882 km, 99.1° (Epoch: 07 April)

Event Time Altitude Azimuth Distance (km) Brightness Sun altitude
Rises 06:34:04 0° 13° (NNE) 3,372 6.4 -8.5°
Reaches altitude 10° 06:36:27 10° 11° (N) 2,427 5.6 -8.1°
Maximum altitude 06:41:46 69° 289° (WNW) 871 3.1 -7.2°
Drops below altitude 10° 06:47:00 10° 207° (SSW) 2,389 5.4 -6.3°
Sets 06:49:19 0° 205° (SSW) 3,315 6.1 -6.0°
